Location: *
(55.5817°S, 142.4781°W)
Time: 09:38:30
(UTC+00:00)

Cosmos 1844 Rocket - Pass Details

Date: 29 April 2025
Orbit: 822 x 845 km, 71.0° (Epoch: 18 May)

Event Time Altitude Azimuth Distance (km) Brightness Sun altitude
Exits shadow 15:22:38 - 215° (SW) 2,894 5.1 -12.7°
Reaches altitude 10° 15:23:46 10° 216° (SW) 2,467 4.7 -12.6°
Maximum altitude 15:29:25 79° 300° (WNW) 858 2.6 -11.8°
Drops below altitude 10° 15:35:00 10° 26° (NNE) 2,436 5.6 -11.0°
Sets 15:37:25 0° 27° (NNE) 3,362 6.4 -10.6°
